Welcome to mirrors.dotsrc.org

All our mirrors of open source software are available via http, https and ftp. More information about our mirrors including statistics and contact information is available on our mirror info pages.

For information about dotsrc.org and our other services please go to our website.

Index of /trisquel/pool/main/k/

File Name  ↓ File Size  ↓ Date  ↓ 
Parent directory/--
kimwitu-doc/-2010-02-12 15:17:29
klone/-2010-02-12 15:17:32
ko.tex-extra-hlfont/-2010-02-12 15:17:37
konfont/-2010-02-12 15:17:43
kitsune/-2010-02-12 15:42:35
kcm-qt-graphicssystem/-2010-12-09 18:26:06
kboot-utils/-2014-02-06 19:41:07
keepnote/-2014-02-06 19:41:48
kqoauth/-2014-02-06 20:10:13
kboot-installer/-2014-03-01 20:21:14
kubuntu-patched-l10n/-2014-03-01 20:38:38
kxml2/-2014-03-01 21:26:11
kingston-update-notifier/-2014-03-01 21:26:11
koji/-2016-06-24 19:45:17
ktp-legacy-presence-applet/-2016-06-24 21:23:13
kdeconnect-plasma/-2016-06-24 21:23:21
kimchi/-2016-06-24 21:23:57
konsole4/-2016-06-24 21:24:17
kmer-tools/-2016-06-24 22:01:56
kalternatives/-2018-04-30 14:46:36
kaa-base/-2018-04-30 14:46:36
kde-thumbnailer-openoffice/-2018-04-30 14:46:38
kde-service-menu-fuseiso/-2018-04-30 14:46:38
kgrab/-2018-04-30 14:46:45
kiconedit/-2018-04-30 14:46:45
kftpgrabber/-2018-04-30 14:46:45
kepas/-2018-04-30 14:46:45
kolabadmin/-2018-04-30 14:46:46
kon2/-2018-04-30 14:46:46
kopete-plugin-thinklight/-2018-04-30 14:46:47
kopete-message-indicator/-2018-04-30 14:46:47
kunststoff/-2018-04-30 14:46:48
kanboard-cli/-2019-04-14 23:33:07
kde-l10n-ast/-2019-04-14 23:33:19
keyboards-rg/-2019-04-14 23:34:26
knowl.js/-2019-04-15 00:00:45
kashmir/-2019-04-15 00:01:01
kryo-serializers/-2019-04-15 00:01:27
kineticstools/-2019-04-15 01:13:54
klein/-2019-04-15 01:23:17
kadu-mime-tex/-2019-04-15 03:52:08
kamerka/-2019-04-15 03:52:17
karlyriceditor/-2019-04-15 03:52:23
kfilereplace/-2019-04-15 03:54:13
kimwitu++/-2019-04-15 03:55:36
kimwitu/-2019-04-15 03:55:36
klinkstatus/-2019-04-15 03:55:52
kmldonkey/-2019-04-15 03:55:59
knutclient/-2019-04-15 03:56:11
kprinter4/-2019-04-15 03:56:35
kredentials/-2019-04-15 03:56:38
kate4/-2019-04-15 04:16:55
kido/-2019-04-15 04:17:25
kde4pimlibs/-2019-04-15 04:30:34
kdepim4/-2019-04-15 04:30:52
kirigami/-2019-04-15 04:53:39
kmer/-2019-04-15 05:03:21
ktap/-2019-12-03 06:01:57
kaa-imlib2/-2020-05-30 22:40:14
kaa-metadata/-2020-05-30 22:40:14
kdbg/-2020-05-30 22:40:15
kde-artwork-active/-2020-05-30 22:40:15
kayali/-2020-05-30 22:40:15
kde-l10n-eo/-2020-05-30 22:40:16
kde-l10n-tg/-2020-05-30 22:40:17
kde-l10n-si/-2020-05-30 22:40:17
kde-l10n-th/-2020-05-30 22:40:17
key-mon/-2020-05-30 22:40:28
kdesudo/-2020-05-30 22:40:28
kedpm/-2020-05-30 22:40:28
kdesrc-build/-2020-05-30 22:40:28
ketchup/-2020-05-30 22:40:28
kgmailnotifier/-2020-05-30 22:40:29
kmfl-keyboards-mywin/-2020-05-30 22:40:29
kickseed/-2020-05-30 22:40:29
kmidimon/-2020-05-30 22:40:29
kgraphviewer/-2020-05-30 22:40:29
ko.tex-unfonts/-2020-05-30 22:40:30
kontrolpack/-2020-05-30 22:40:30
kpartsplugin/-2020-05-30 22:40:30
kover/-2020-05-30 22:40:30
komparator/-2020-05-30 22:40:30
kstars-data-extra-tycho2/-2020-05-30 22:40:31
kactivities/-2020-12-11 00:05:16
kadu/-2020-12-11 00:05:16
kaccessible/-2020-12-11 00:05:16
k3d/-2020-12-11 00:05:16
kiki/-2020-12-11 00:05:17
kde-l10n-cs/-2020-12-11 00:05:17
kdesdk-strigi-analyzers/-2020-12-11 00:05:17
ksnapshot/-2020-12-11 00:05:17
kde-l10n-he/-2020-12-11 00:05:17
kde-l10n-fa/-2020-12-11 00:05:17
kde-l10n-nds/-2020-12-11 00:05:17
kde-l10n-ar/-2020-12-11 00:05:17
kde-l10n-km/-2020-12-11 00:05:17
kde-l10n-lt/-2020-12-11 00:05:17
kffmpegthumbnailer/-2020-12-11 00:05:17
kernel-wedge/-2020-12-11 00:05:17
kde-l10n-fr/-2020-12-11 00:05:17
kephra/-2020-12-11 00:05:17
kde-runtime/-2020-12-11 00:05:17
kdevplatform/-2020-12-11 00:05:17
kdev-python/-2020-12-11 00:05:17
kindleclip/-2020-12-11 00:05:17
kde-l10n-nl/-2020-12-11 00:05:17
kde-l10n-ia/-2020-12-11 00:05:17
kdenetwork-strigi-analyzers/-2020-12-11 00:05:17
kde-l10n-ug/-2020-12-11 00:05:17
kde-l10n-nb/-2020-12-11 00:05:17
kde-l10n-ga/-2020-12-11 00:05:17
kde-l10n-hr/-2020-12-11 00:05:17
keysync/-2020-12-11 00:05:17
kde-l10n-bs/-2020-12-11 00:05:17
kde-l10n-et/-2020-12-11 00:05:17
kde-l10n-pa/-2020-12-11 00:05:17
kde-l10n-bg/-2020-12-11 00:05:17
kio-mtp/-2020-12-11 00:05:17
kremotecontrol/-2020-12-11 00:05:17
kde-l10n-pl/-2020-12-11 00:05:17
kde-l10n-es/-2020-12-11 00:05:17
kde-l10n-wa/-2020-12-11 00:05:17
kde-l10n-hu/-2020-12-11 00:05:17
kfritz/-2020-12-11 00:05:17
kde-l10n-ca-valencia/-2020-12-11 00:05:17
kppp/-2020-12-11 00:05:17
kterm/-2020-12-11 00:05:17
kdegraphics-strigi-analyzer/-2020-12-11 00:05:17
kde-l10n-gl/-2020-12-11 00:05:17
kde-l10n-zhcn/-2020-12-11 00:05:17
kde-baseapps/-2020-12-11 00:05:17
kde-l10n-ca/-2020-12-11 00:05:17
krecipes/-2020-12-11 00:05:17
kde-l10n-it/-2020-12-11 00:05:17
kde-l10n-ro/-2020-12-11 00:05:17
kde-l10n-kk/-2020-12-11 00:05:17
kde-l10n-sl/-2020-12-11 00:05:17
kmess/-2020-12-11 00:05:17
ksaneplugin/-2020-12-11 00:05:17
kde-l10n-hi/-2020-12-11 00:05:17
kde-l10n-sr/-2020-12-11 00:05:17
kpcli/-2020-12-11 00:05:17
kde-l10n-zhtw/-2020-12-11 00:05:17
kde-l10n-tr/-2020-12-11 00:05:17
kde-l10n-sk/-2020-12-11 00:05:17
kde4libs/-2020-12-11 00:05:17
kdevelop-php-docs/-2020-12-11 00:05:17
kanla/-2020-12-11 00:05:17
kdepim/-2020-12-11 00:05:17
kde-wallpapers/-2020-12-11 00:05:17
kfilemetadata/-2020-12-11 00:05:17
kde-l10n-ptbr/-2020-12-11 00:05:17
kde-l10n-is/-2020-12-11 00:05:17
kde-l10n-engb/-2020-12-11 00:05:17
kdeartwork/-2020-12-11 00:05:17
kde-l10n-da/-2020-12-11 00:05:17
kde-l10n-de/-2020-12-11 00:05:17
kdgcommons-java/-2020-12-11 00:05:17
kde-l10n-ja/-2020-12-11 00:05:17
kde-l10n-mr/-2020-12-11 00:05:17
kde-l10n-vi/-2020-12-11 00:05:17
kde-l10n-nn/-2020-12-11 00:05:17
kde-l10n-uk/-2020-12-11 00:05:17
kde-l10n-el/-2020-12-11 00:05:17
kdepimlibs/-2020-12-11 00:05:17
kscope/-2020-12-11 00:05:17
khmerconverter/-2020-12-11 00:05:17
kde-l10n-fi/-2020-12-11 00:05:17
kde-l10n-sv/-2020-12-11 00:05:17
khronos-opengl-man4/-2020-12-11 00:05:17
kde-l10n-eu/-2020-12-11 00:05:17
kde-l10n-lv/-2020-12-11 00:05:17
kdewebdev/-2020-12-11 00:05:17
kde-l10n-ko/-2020-12-11 00:05:17
kscd/-2020-12-11 00:05:17
kde-l10n-pt/-2020-12-11 00:05:17
kde-base-artwork/-2020-12-11 00:05:17
kiwi/-2020-12-11 00:05:17
kde-l10n-ru/-2020-12-11 00:05:17
kradio4/-2020-12-11 00:05:17
kde-l10n-id/-2020-12-11 00:05:17
kyototycoon/-2020-12-11 00:05:18
kubuntu-web-shortcuts/-2020-12-11 00:05:18
kuser/-2020-12-11 00:05:18
kubuntu-meta/-2020-12-11 00:05:18
kvpm/-2020-12-11 00:05:18
kvpnc/-2020-12-11 00:05:18
kernel-handbook/-2020-12-11 19:34:56
key-chord-el/-2020-12-11 19:35:35
kajongg/-2020-12-11 19:46:00
kanif/-2020-12-11 19:46:02
kapidox/-2020-12-11 19:46:02
kanjidic/-2020-12-11 19:46:02
kamcli/-2020-12-11 19:46:02
kanyremote/-2020-12-11 19:46:02
kaptive/-2020-12-11 19:46:03
kazam/-2020-12-11 19:46:04
kdeedu-data/-2020-12-11 19:46:14
kde-dev-scripts/-2020-12-11 19:46:17
kernel-package/-2020-12-11 19:46:18
keepass2-plugin-keepasshttp/-2020-12-11 19:46:18
keepass2/-2020-12-11 19:46:18
keymapper/-2020-12-11 19:46:18
keychain/-2020-12-11 19:46:18
keyringer/-2020-12-11 19:46:19
khard/-2020-12-11 19:46:20
kgb-bot/-2020-12-11 19:46:20
khal/-2020-12-11 19:46:20
kicad-footprints/-2020-12-11 19:46:30
kicad-symbols/-2020-12-11 19:46:40
kicad-packages3d/-2020-12-11 19:46:40
kicad-templates/-2020-12-11 19:46:40
killer/-2020-12-11 19:46:41
king/-2020-12-11 19:46:41
kissplice/-2020-12-11 19:46:42
kleborate/-2020-12-11 19:46:44
knockpy/-2020-12-11 19:46:46
kopano-webapp/-2020-12-11 19:46:49
kpatch/-2020-12-11 19:46:50
kerberos-configs/-2020-12-11 19:46:52
krank/-2020-12-11 19:46:52
krop/-2020-12-11 19:46:55
krita/-2020-12-11 19:46:55
kubernetes/-2020-12-11 19:46:59
kubetail/-2020-12-11 19:46:59
kup/-2020-12-11 19:47:00
kupfer/-2020-12-11 19:47:00
kubuntu-wallpapers/-2020-12-11 19:47:00
kwalify/-2020-12-11 19:47:00
kwartz-client/-2020-12-11 19:47:00
kuttypy/-2020-12-11 19:47:00
kytos-utils/-2020-12-11 19:47:01
kitchensink-clojure/-2020-12-11 19:52:49
knopflerfish-osgi/-2020-12-11 19:52:50
keyman-keyboardprocessor/-2020-12-11 19:52:50
khmer/-2020-12-11 19:55:08
khronos-opencl-clhpp/-2020-12-11 20:02:11
khronos-opencl-man/-2020-12-11 20:02:11
khronos-opencl-headers/-2020-12-11 20:02:11
kid/-2020-12-11 20:04:38
kazoo/-2020-12-11 20:05:51
klaus/-2020-12-11 20:05:51
kytos-sphinx-theme/-2020-12-11 20:05:51
kombu/-2020-12-11 20:05:51
keyrings.alt/-2020-12-11 20:05:51
keras-preprocessing/-2020-12-11 20:05:51
knitpy/-2020-12-11 20:05:51
keras-applications/-2020-12-11 20:05:51
keras/-2020-12-11 20:05:51
keyman-config/-2020-12-11 20:05:51
knack/-2020-12-11 20:05:51
kitchen/-2020-12-11 20:05:51
kmail-account-wizard/-2021-09-20 23:33:26
ktp-accounts-kcm/-2021-09-20 23:34:11
kopete/-2021-09-20 23:34:15
kafkacat/-2021-09-20 23:38:27
kactivitymanagerd/-2021-09-20 23:38:27
k2pdfopt/-2021-09-20 23:38:27
kali/-2021-09-20 23:38:27
kaccounts-providers/-2021-09-20 23:38:27
kaffeine/-2021-09-20 23:38:27
kalgebra/-2021-09-20 23:38:27
kakoune/-2021-09-20 23:38:27
kalarm/-2021-09-20 23:38:27
kaddressbook/-2021-09-20 23:38:27
k4dirstat/-2021-09-20 23:38:27
kalign/-2021-09-20 23:38:28
kallisto/-2021-09-20 23:38:28
kalzium/-2021-09-20 23:38:28
kapman/-2021-09-20 23:38:29
kanagram/-2021-09-20 23:38:29
kanjipad/-2021-09-20 23:38:29
kapptemplate/-2021-09-20 23:38:29
kamailio/-2021-09-20 23:38:29
kannel/-2021-09-20 23:38:29
kamoso/-2021-09-20 23:38:29
kamera/-2021-09-20 23:38:29
kanshi/-2021-09-20 23:38:29
kannel-sqlbox/-2021-09-20 23:38:29
kanatest/-2021-09-20 23:38:29
kbd/-2021-09-20 23:38:30
kblocks/-2021-09-20 23:38:30
kbackup/-2021-09-20 23:38:30
kbdd/-2021-09-20 23:38:30
kbounce/-2021-09-20 23:38:30
kblackbox/-2021-09-20 23:38:30
kbruch/-2021-09-20 23:38:30
kball/-2021-09-20 23:38:30
kasumi/-2021-09-20 23:38:30
katomic/-2021-09-20 23:38:30
kawari8/-2021-09-20 23:38:30
kbreakout/-2021-09-20 23:38:30
kbibtex/-2021-09-20 23:38:30
katarakt/-2021-09-20 23:38:30
kbtin/-2021-09-20 23:38:31
kcolorchooser/-2021-09-20 23:38:31
kde-cli-tools/-2021-09-20 23:38:31
kde-gtk-config/-2021-09-20 23:38:31
kcharselect/-2021-09-20 23:38:31
kcollectd/-2021-09-20 23:38:31
kcov/-2021-09-20 23:38:31
kcc/-2021-09-20 23:38:31
kconfig-frontends/-2021-09-20 23:38:31
kcheckers/-2021-09-20 23:38:31
kchmviewer/-2021-09-20 23:38:31
kcalc/-2021-09-20 23:38:31
kcptun/-2021-09-20 23:38:31
kcm-fcitx/-2021-09-20 23:38:31
kcron/-2021-09-20 23:38:31
kbuild/-2021-09-20 23:38:31
kcachegrind/-2021-09-20 23:38:31
kdc2tiff/-2021-09-20 23:38:31
ktp-send-file/-2021-09-20 23:38:32
kdepim-addons/-2021-09-20 23:38:32
kdegraphics-thumbnailers/-2021-09-20 23:38:32
ktp-filetransfer-handler/-2021-09-20 23:38:32
ktp-text-ui/-2021-09-20 23:38:32
ktp-kded-integration-module/-2021-09-20 23:38:32
kde-config-whoopsie/-2021-09-20 23:38:32
kdebugsettings/-2021-09-20 23:38:32
kdesdk-thumbnailers/-2021-09-20 23:38:32
kde-config-systemd/-2021-09-20 23:38:32
ktp-desktop-applets/-2021-09-20 23:38:32
kdesvn/-2021-09-20 23:38:32
ktp-approver/-2021-09-20 23:38:32
kdepim-runtime/-2021-09-20 23:38:32
ktp-contact-list/-2021-09-20 23:38:32
ktp-call-ui/-2021-09-20 23:38:32
kdeconnect/-2021-09-20 23:38:32
kde-spectacle/-2021-09-20 23:38:32
kdenetwork-filesharing/-2021-09-20 23:38:32
kded/-2021-09-20 23:38:32
ktp-auth-handler/-2021-09-20 23:38:32
kdocker/-2021-09-20 23:38:33
kdiff3/-2021-09-20 23:38:33
kdevelop-python/-2021-09-20 23:38:33
kdiamond/-2021-09-20 23:38:33
kdf/-2021-09-20 23:38:33
kdevelop-pg-qt/-2021-09-20 23:38:33
kdevelop-php/-2021-09-20 23:38:33
kdialog/-2021-09-20 23:38:33
kgamma5/-2021-09-20 23:38:34
kerneltop/-2021-09-20 23:38:34
keurocalc/-2021-09-20 23:38:34
kgb/-2021-09-20 23:38:34
kfind/-2021-09-20 23:38:34
kgeography/-2021-09-20 23:38:34
kerneloops/-2021-09-20 23:38:34
kfloppy/-2021-09-20 23:38:34
kexi/-2021-09-20 23:38:34
keytouch-editor/-2021-09-20 23:38:34
keepassxc/-2021-09-20 23:38:34
kfourinline/-2021-09-20 23:38:34
kelbt/-2021-09-20 23:38:34
kexec-tools/-2021-09-20 23:38:34
kdesignerplugin/-2021-09-20 23:38:34
keditbookmarks/-2021-09-20 23:38:34
keyboardcast/-2021-09-20 23:38:34
keynav/-2021-09-20 23:38:34
keepalived/-2021-09-20 23:38:34
ketm/-2021-09-20 23:38:34
keepassx/-2021-09-20 23:38:34
keylaunch/-2021-09-20 23:38:34
kgoldrunner/-2021-09-20 23:38:35
kgpg/-2021-09-20 23:38:35
khangman/-2021-09-20 23:38:35
kget/-2021-09-20 23:38:35
khotkeys/-2021-09-20 23:38:36
khelpcenter/-2021-09-20 23:38:36
kid3/-2021-09-20 23:38:37
kildclient/-2021-09-20 23:38:37
killbots/-2021-09-20 23:38:37
kigo/-2021-09-20 23:38:37
kimageformats/-2021-09-20 23:38:37
kinfocenter/-2021-09-20 23:38:37
kicad/-2021-09-20 23:38:37
kig/-2021-09-20 23:38:37
kile/-2021-09-20 23:38:37
kiki-the-nano-bot/-2021-09-20 23:38:37
kimagemapeditor/-2021-09-20 23:38:37
kino/-2021-09-20 23:38:38
kinput2/-2021-09-20 23:38:38
kinit/-2021-09-20 23:38:38
king-probe/-2021-09-20 23:38:38
kio-gopher/-2021-09-20 23:38:39
kio-gdrive/-2021-09-20 23:38:39
kio-extras/-2021-09-20 23:38:39
kiriki/-2021-09-20 23:38:40
kitty/-2021-09-20 23:38:40
klavaro/-2021-09-20 23:38:40
kipi-plugins/-2021-09-20 23:38:40
kjumpingcube/-2021-09-20 23:38:40
kdesdk-kioslaves/-2021-09-20 23:38:40
kismet/-2021-09-20 23:38:40
kjots/-2021-09-20 23:38:40
kirigami-gallery/-2021-09-20 23:38:40
klickety/-2021-09-20 23:38:41
klettres/-2021-09-20 23:38:41
klines/-2021-09-20 23:38:41
kleopatra/-2021-09-20 23:38:41
klick/-2021-09-20 23:38:41
klayout/-2021-09-20 23:38:41
kmerresistance/-2021-09-20 23:38:42
kluppe/-2021-09-20 23:38:42
kmetronome/-2021-09-20 23:38:42
kmag/-2021-09-20 23:38:42
kmahjongg/-2021-09-20 23:38:42
kmousetool/-2021-09-20 23:38:42
kmenuedit/-2021-09-20 23:38:42
klog/-2021-09-20 23:38:42
kmix/-2021-09-20 23:38:42
klystrack/-2021-09-20 23:38:42
klustakwik/-2021-09-20 23:38:42
kmines/-2021-09-20 23:38:42
kma/-2021-09-20 23:38:42
kmplayer/-2021-09-20 23:38:43
kmscube/-2021-09-20 23:38:43
knavalbattle/-2021-09-20 23:38:43
kmymoney/-2021-09-20 23:38:43
knetwalk/-2021-09-20 23:38:43
knews/-2021-09-20 23:38:43
kmplot/-2021-09-20 23:38:43
kmouth/-2021-09-20 23:38:43
kobodeluxe/-2021-09-20 23:38:44
kodi-pvr-iptvsimple/-2021-09-20 23:38:44
knowthelist/-2021-09-20 23:38:44
kodi-pvr-dvbviewer/-2021-09-20 23:38:44
knights/-2021-09-20 23:38:44
kodi-pvr-mediaportal-tvserver/-2021-09-20 23:38:44
knxd/-2021-09-20 23:38:44
knot-resolver/-2021-09-20 23:38:44
kodi-pvr-hts/-2021-09-20 23:38:44
kodi-pvr-argustv/-2021-09-20 23:38:44
knotes/-2021-09-20 23:38:44
kodi-pvr-hdhomerun/-2021-09-20 23:38:44
knocker/-2021-09-20 23:38:44
knockd/-2021-09-20 23:38:44
kodi-visualization-spectrum/-2021-09-20 23:38:45
kodi-pvr-nextpvr/-2021-09-20 23:38:45
kolourpaint/-2021-09-20 23:38:45
kodi-pvr-vdr-vnsi/-2021-09-20 23:38:45
kolf/-2021-09-20 23:38:45
kodi-pvr-mythtv/-2021-09-20 23:38:45
kollision/-2021-09-20 23:38:45
kodi-pvr-wmc/-2021-09-20 23:38:45
kodi/-2021-09-20 23:38:45
kodi-pvr-njoy/-2021-09-20 23:38:45
konclude/-2021-09-20 23:38:45
komi/-2021-09-20 23:38:45
kodi-pvr-vuplus/-2021-09-20 23:38:45
konquest/-2021-09-20 23:38:46
kontact/-2021-09-20 23:38:46
konsole/-2021-09-20 23:38:46
kore/-2021-09-20 23:38:46
kookbook/-2021-09-20 23:38:46
konwert/-2021-09-20 23:38:46
korganizer/-2021-09-20 23:38:46
koules/-2021-09-20 23:38:46
konversation/-2021-09-20 23:38:46
kraken2/-2021-09-20 23:38:47
kraft/-2021-09-20 23:38:47
kraken/-2021-09-20 23:38:47
kreversi/-2021-09-20 23:38:47
krb5-auth-dialog/-2021-09-20 23:38:47
kraptor/-2021-09-20 23:38:47
kpat/-2021-09-20 23:38:47
kphotoalbum/-2021-09-20 23:38:47
kpeoplevcard/-2021-09-20 23:38:47
krb5-strength/-2021-09-20 23:38:47
krename/-2021-09-20 23:38:47
krfb/-2021-09-20 23:38:47
krdc/-2021-09-20 23:38:47
krb5-sync/-2021-09-20 23:38:47
krusader/-2021-09-20 23:38:48
kst/-2021-09-20 23:38:48
kscreen/-2021-09-20 23:38:48
ksnakeduel/-2021-09-20 23:38:48
ksshaskpass/-2021-09-20 23:38:48
kruler/-2021-09-20 23:38:48
ksirk/-2021-09-20 23:38:48
kspaceduel/-2021-09-20 23:38:48
kshisen/-2021-09-20 23:38:48
ksmtuned/-2021-09-20 23:38:48
ksh93/-2021-09-20 23:38:48
ksquares/-2021-09-20 23:38:48
kshutdown/-2021-09-20 23:38:48
kronometer/-2021-09-20 23:38:48
kross-interpreters/-2021-09-20 23:38:48
ksh/-2021-09-20 23:38:48
ktorrent/-2021-09-20 23:38:49
kstart/-2021-09-20 23:38:49
kmail/-2021-09-20 23:38:49
ksudoku/-2021-09-20 23:38:49
kteatime/-2021-09-20 23:38:49
ktouch/-2021-09-20 23:38:49
ksystemlog/-2021-09-20 23:38:49
kstars/-2021-09-20 23:38:49
ktimer/-2021-09-20 23:38:49
ksysguard/-2021-09-20 23:38:49
kturtle/-2021-09-20 23:38:50
kubrick/-2021-09-20 23:38:50
kubuntu-debug-installer/-2021-09-20 23:38:50
ktuberling/-2021-09-20 23:38:50
kde-dev-utils/-2021-09-20 23:38:51
kubuntu-driver-manager/-2021-09-20 23:38:51
kwalletcli/-2021-09-20 23:38:51
kup-backup/-2021-09-20 23:38:51
kwayland-integration/-2021-09-20 23:38:51
kvmtool/-2021-09-20 23:38:51
kwave/-2021-09-20 23:38:51
kwalletmanager/-2021-09-20 23:38:51
kubuntu-notification-helper/-2021-09-20 23:38:51
kuvert/-2021-09-20 23:38:51
kworkflow/-2021-09-20 23:38:52
kxstitch/-2021-09-20 23:38:52
kwstyle/-2021-09-20 23:38:52
kwordquiz/-2021-09-20 23:38:52
kwrited/-2021-09-20 23:38:52
kxd/-2021-09-20 23:38:52
kylin-display-switch/-2021-09-20 23:38:52
kate/-2021-09-20 23:38:52
kylin-video/-2021-09-20 23:38:53
kylin-nm/-2021-09-20 23:38:53
kylin-greeter/-2021-09-20 23:38:53
k3b/-2021-09-20 23:42:20
kakasi/-2021-09-20 23:42:20
keybinder-3.0/-2021-09-20 23:42:21
kdecoration/-2021-09-20 23:42:21
keybinder/-2021-09-20 23:42:21
kactivities-stats/-2021-09-20 23:42:21
kdb/-2021-09-20 23:42:21
karchive/-2021-09-20 23:42:22
kalarmcal/-2021-09-20 23:42:22
kauth/-2021-09-20 23:42:25
kcompletion/-2021-09-20 23:42:27
kcalcore/-2021-09-20 23:42:27
kcalutils/-2021-09-20 23:42:27
kblog/-2021-09-20 23:42:27
kbookmarks/-2021-09-20 23:42:27
kcodecs/-2021-09-20 23:42:27
kcrash/-2021-09-20 23:42:28
kimap/-2021-09-20 23:42:28
kcontacts/-2021-09-20 23:42:28
kcoreaddons/-2021-09-20 23:42:28
kguiaddons/-2021-09-20 23:42:28
kfilemetadata-kf5/-2021-09-20 23:42:28
kdnssd-kf5/-2021-09-20 23:42:28
kiconthemes/-2021-09-20 23:42:28
kglobalaccel/-2021-09-20 23:42:28
ki18n/-2021-09-20 23:42:28
kidletime/-2021-09-20 23:42:28
kitemviews/-2021-09-20 23:42:28
kdoctools/-2021-09-20 23:42:28
kidentitymanagement/-2021-09-20 23:42:28
kjobwidgets/-2021-09-20 23:42:28
kjsembed/-2021-09-20 23:42:28
kemoticons/-2021-09-20 23:42:28
kcmutils/-2021-09-20 23:42:28
kconfigwidgets/-2021-09-20 23:42:28
kdbusaddons/-2021-09-20 23:42:28
kjs/-2021-09-20 23:42:29
kio/-2021-09-20 23:42:29
kdelibs4support/-2021-09-20 23:42:29
kldap/-2021-09-20 23:42:29
kross/-2021-09-20 23:42:29
konqueror/-2021-09-20 23:42:29
kontactinterface/-2021-09-20 23:42:29
khtml/-2021-09-20 23:42:29
kmediaplayer/-2021-09-20 23:42:30
knotifyconfig/-2021-09-20 23:42:30
kparts/-2021-09-20 23:42:30
kpackage/-2021-09-20 23:42:30
kmbox/-2021-09-20 23:42:30
kmailtransport/-2021-09-20 23:42:30
kmime/-2021-09-20 23:42:30
kpimtextedit/-2021-09-20 23:42:30
knotifications/-2021-09-20 23:42:30
kunitconversion/-2021-09-20 23:42:31
kf5-kdepim-apps-libs/-2021-09-20 23:42:31
ktexteditor/-2021-09-20 23:42:31
ksyntax-highlighting/-2021-09-20 23:42:31
kplotting/-2021-09-20 23:42:31
ktextwidgets/-2021-09-20 23:42:31
kservice/-2021-09-20 23:42:31
kdesu/-2021-09-20 23:42:31
kpty/-2021-09-20 23:42:31
ktnef/-2021-09-20 23:42:31
kiten/-2021-09-20 23:42:32
kxmlgui/-2021-09-20 23:42:32
kdewebkit/-2021-09-20 23:42:32
kwindowsystem/-2021-09-20 23:42:32
kdiagram/-2021-09-20 23:42:32
kwayland/-2021-09-20 23:42:32
kf5-messagelib/-2021-09-20 23:42:32
kickpass/-2021-09-20 23:42:32
kxmlrpcclient/-2021-09-20 23:42:32
kim-api/-2021-09-20 23:42:32
kwidgetsaddons/-2021-09-20 23:42:32
kmflcomp/-2021-09-20 23:42:33
kompare/-2021-09-20 23:42:33
kmc/-2021-09-20 23:42:33
kpkpass/-2021-09-20 23:42:33
klatexformula/-2021-09-20 23:42:33
ksmtp/-2021-09-20 23:42:33
kodiplatform/-2021-09-20 23:42:33
kdav/-2021-09-20 23:42:33
kitinerary/-2021-09-20 23:42:33
kwallet-kf5/-2021-09-20 23:42:34
kpmcore/-2021-09-20 23:42:34
kreport/-2021-09-20 23:42:34
kscreenlocker/-2021-09-20 23:42:34
kvirc/-2021-09-20 23:42:34
kproperty/-2021-09-20 23:42:34
kyotocabinet/-2021-09-20 23:42:35
kxl/-2021-09-20 23:42:35
kwin/-2021-09-20 23:42:35
kwallet-pam/-2021-09-20 23:43:47
kdegraphics-mobipocket/-2021-09-20 23:44:16
knot/-2021-09-20 23:46:07
kdrill/-2021-09-20 23:46:34
kylin-burner/-2021-09-20 23:47:34
ktp-contact-runner/-2021-09-20 23:49:22
kdeplasma-addons/-2021-09-20 23:49:22
kdevelop/-2021-09-20 23:49:22
kmodpy/-2021-09-20 23:49:57
kiwisolver/-2021-09-20 23:50:21
kivy/-2021-09-20 23:50:21
kopanocore/-2021-09-20 23:50:30
kqtquickcharts/-2021-09-20 23:51:37
kaccounts-integration/-2021-09-20 23:51:37
kholidays/-2021-09-20 23:51:37
kactivities-kf5/-2021-09-20 23:51:37
kdeclarative/-2021-09-20 23:51:38
ktp-common-internals/-2021-09-20 23:51:38
kirigami2/-2021-09-20 23:51:38
kquickcharts/-2021-09-20 23:51:38
krunner/-2021-09-20 23:51:38
knewstuff/-2021-09-20 23:51:38
kpeople/-2021-09-20 23:51:38
kitemmodels/-2021-09-20 23:51:38
ktikz/-2021-09-20 23:51:54
kernsmooth/-2021-09-20 23:52:23
kmod/-2021-09-20 23:59:32
klibc/-2021-09-20 23:59:32
krb5/-2021-09-20 23:59:32
keyutils/-2021-09-20 23:59:32
kconfig/-2021-09-20 23:59:32
kronosnet/-2021-09-20 23:59:37
kiwix/-2021-09-27 16:26:22
keystone/-2021-10-19 19:02:08
kdenlive/-2021-11-18 00:59:50
khronos-api/-2021-11-20 01:07:04
kubuntu-settings/-2021-11-30 19:11:34